EA3KZ-1 Weather Reports


time (UTC)temp
F
wind
direction
speed
knots
gust
knots
rain 1hr
in
rain 24hr
in
rain mn
in
humidity
%
barometer
mb
20260905043521 77 251 2.6 3.5 0.00 0.00 0.00 56 1017.0
20260905042519 77 248 1.7 1.7 0.00 0.00 0.00 56 1016.9
20260905041516 78 264 0.9 1.7 0.00 0.00 0.00 55 1016.9
20260905040614 77 266 0.9 1.7 0.00 0.00 0.00 55 1016.8
20260905035611 78 0.0 0.0 0.00 0.00 0.00 55 1016.9
20260905034609 77 248 1.7 1.7 0.00 0.00 0.00 55 1017.0
20260905033606 78 248 0.0 1.7 0.00 0.00 0.00 55 1016.9
20260905032604 78 229 1.7 3.5 0.00 0.00 0.00 55 1016.8
20260905031601 77 243 0.9 1.7 0.00 0.00 0.00 56 1016.8
20260905030558 77 0.0 0.0 0.00 0.00 0.00 57 1016.6
20260905025556 77 293 0.0 1.7 0.00 0.00 0.00 57 1016.7
20260905024553 78 23 0.0 1.7 0.00 0.00 0.00 55 1016.8
20260905023551 79 0.0 1.7 0.00 0.00 0.00 54 1016.7
20260905022548 78 293 0.9 1.7 0.00 0.00 0.00 56 1016.8
20260905021545 77 0.0 0.0 0.00 0.00 0.00 57 1016.8
20260905020543 78 0.0 0.0 0.00 0.00 0.00 56 1016.8
20260905015540 78 0.0 0.0 0.00 0.00 0.00 55 1016.6
20260905014538 78 0.0 0.0 0.00 0.00 0.00 54 1016.7
20260905013535 77 0.0 0.0 0.00 0.00 0.00 57 1016.8
20260905012533 77 0.0 0.0 0.00 0.00 0.00 56 1016.9
20260905011530 78 244 1.7 1.7 0.00 0.00 0.00 55 1016.8
20260905010527 78 242 0.9 3.5 0.00 0.00 0.00 55 1016.9
20260905005525 79 221 0.0 3.5 0.00 0.00 0.00 54 1016.9
20260905004522 79 224 1.7 3.5 0.00 0.00 0.00 53 1016.9
20260905003519 79 215 3.5 6.1 0.00 0.00 0.00 54 1017.0
20260905002517 78 230 3.5 7.0 0.00 0.00 0.00 56 1017.1
20260905001614 79 222 2.6 5.2 0.00 0.00 0.00 56 1017.1
20260905000612 78 180 1.7 1.7 0.00 0.00 0.00 57 1017.2
20260904235609 78 230 4.3 7.0 0.00 0.00 0.00 58 1017.2
20260904234607 77 218 0.9 3.5 0.00 0.00 0.00 62 1017.3
20260904233604 78 235 1.7 3.5 0.00 0.00 0.00 61 1017.4
20260904232601 78 180 1.7 3.5 0.00 0.00 0.00 61 1017.4
20260904231559 78 176 1.7 3.5 0.00 0.00 0.00 61 1017.4
20260904230556 78 230 2.6 5.2 0.00 0.00 0.00 63 1017.5
20260904225554 78 221 1.7 3.5 0.00 0.00 0.00 64 1017.5
20260904224551 78 223 1.7 5.2 0.00 0.00 0.00 62 1017.5
20260904223548 78 210 2.6 5.2 0.00 0.00 0.00 64 1017.7
20260904222546 77 218 4.3 6.1 0.00 0.00 0.00 67 1017.4
20260904221543 77 225 4.3 7.0 0.00 0.00 0.00 68 1017.5
20260904220541 78 194 3.5 6.1 0.00 0.00 0.00 69 1017.6
20260904215538 78 178 1.7 3.5 0.00 0.00 0.00 70 1017.6
20260904214535 78 214 2.6 6.1 0.00 0.00 0.00 72 1017.5
20260904213533 78 183 1.7 3.5 0.00 0.00 0.00 74 1017.5
20260904212530 79 175 1.7 3.5 0.00 0.00 0.00 73 1017.6
20260904211528 80 234 2.6 3.5 0.00 0.00 0.00 71 1017.7
20260904210525 80 244 2.6 3.5 0.00 0.00 0.00 72 1017.7
20260904205522 80 228 2.6 3.5 0.00 0.00 0.00 73 1017.8
20260904204520 80 233 3.5 3.5 0.00 0.00 0.00 74 1017.8
20260904203517 80 221 2.6 3.5 0.00 0.00 0.00 75 1017.7
20260904202515 80 237 2.6 3.5 0.00 0.00 0.00 75 1017.8
20260904201612 80 253 0.9 1.7 0.00 0.00 0.00 74 1017.8
20260904200610 80 248 1.7 1.7 0.00 0.00 0.00 74 1017.7
20260904195607 81 239 0.9 3.5 0.00 0.00 0.00 74 1017.8
20260904194605 81 0.0 1.7 0.00 0.00 0.00 75 1017.6
20260904193602 81 315 0.0 1.7 0.00 0.00 0.00 75 1017.6
20260904192559 81 322 0.9 1.7 0.00 0.00 0.00 76 1017.6
20260904191556 80 338 0.0 1.7 0.00 0.00 0.00 78 1017.5
20260904190554 80 310 0.9 1.7 0.00 0.00 0.00 79 1017.5
20260904185551 81 306 0.9 1.7 0.00 0.00 0.00 79 1017.3
20260904184549 81 313 2.6 3.5 0.00 0.00 0.00 78 1017.0
20260904183546 81 300 0.9 1.7 0.00 0.00 0.00 78 1017.0
20260904182544 81 62 0.9 1.7 0.00 0.00 0.00 77 1016.9
20260904181542 82 20 1.7 3.5 0.00 0.00 0.00 76 1016.8
20260904180538 82 348 1.7 5.2 0.00 0.00 0.00 74 1016.7
20260904175536 83 10 2.6 5.2 0.00 0.00 0.00 73 1016.7
20260904174533 84 118 1.7 3.5 0.00 0.00 0.00 70 1016.4
20260904173531 84 29 1.7 5.2 0.00 0.00 0.00 68 1016.3
20260904172528 84 43 2.6 6.1 0.00 0.00 0.00 68 1016.3
20260904171525 84 30 4.3 9.6 0.00 0.00 0.00 69 1016.3
20260904170523 85 17 5.2 9.6 0.00 0.00 0.00 68 1016.1
20260904165520 85 13 4.3 9.6 0.00 0.00 0.00 68 1016.0
20260904164517 86 358 5.2 9.6 0.00 0.00 0.00 68 1016.0
20260904163515 86 6 6.1 12.2 0.00 0.00 0.00 69 1015.9
20260904162614 86 13 5.2 9.6 0.00 0.00 0.00 67 1015.9
20260904161610 88 50 4.3 7.8 0.00 0.00 0.00 64 1015.9
20260904160607 88 10 4.3 9.6 0.00 0.00 0.00 64 1016.0
20260904155605 88 53 4.3 9.6 0.00 0.00 0.00 63 1015.8
20260904154602 88 17 4.3 7.8 0.00 0.00 0.00 65 1015.9
20260904153559 88 17 5.2 9.6 0.00 0.00 0.00 65 1015.8
20260904152557 88 2 5.2 9.6 0.00 0.00 0.00 65 1015.9
20260904151554 88 324 7.0 12.2 0.00 0.00 0.00 65 1016.0
20260904150552 89 32 6.1 9.6 0.00 0.00 0.00 62 1015.8
20260904145549 89 349 7.8 13.0 0.00 0.00 0.00 60 1015.8
20260904144547 91 28 7.8 13.9 0.00 0.00 0.00 56 1015.5
20260904143544 93 18 7.8 13.0 0.00 0.00 0.00 50 1015.7
20260904142541 94 8 5.2 11.3 0.00 0.00 0.00 48 1015.4
20260904141539 96 81 3.5 7.0 0.00 0.00 0.00 44 1015.7
20260904140536 96 143 2.6 7.8 0.00 0.00 0.00 44 1015.6
20260904135533 96 130 2.6 7.8 0.00 0.00 0.00 44 1015.5
20260904134531 97 75 2.6 6.1 0.00 0.00 0.00 43 1015.7
20260904133528 96 142 3.5 9.6 0.00 0.00 0.00 46 1015.6
20260904132526 96 138 3.5 9.6 0.00 0.00 0.00 46 1015.6
20260904131523 97 128 2.6 7.8 0.00 0.00 0.00 46 1015.7
20260904130521 97 137 2.6 5.2 0.00 0.00 0.00 44 1015.7
20260904125518 97 167 2.6 6.1 0.00 0.00 0.00 42 1015.8
20260904124515 97 114 2.6 7.0 0.00 0.00 0.00 42 1015.9
20260904123613 97 136 1.7 6.1 0.00 0.00 0.00 41 1015.8
20260904122610 97 166 1.7 5.2 0.00 0.00 0.00 40 1016.0
20260904121608 97 117 3.5 7.0 0.00 0.00 0.00 39 1015.9
20260904120605 96 59 2.6 7.0 0.00 0.00 0.00 41 1016.1
20260904115603 95 121 3.5 9.6 0.00 0.00 0.00 41 1016.2
20260904114600 95 111 3.5 7.8 0.00 0.00 0.00 40 1016.4
20260904113557 95 135 3.5 6.1 0.00 0.00 0.00 40 1016.5
20260904112555 94 102 2.6 6.1 0.00 0.00 0.00 43 1016.6
20260904111552 94 110 0.9 6.1 0.00 0.00 0.00 42 1016.6
20260904110550 94 99 1.7 5.2 0.00 0.00 0.00 44 1016.7
20260904105547 93 87 1.7 5.2 0.00 0.00 0.00 47 1016.8
20260904104544 92 345 0.9 3.5 0.00 0.00 0.00 49 1016.9
20260904103542 92 113 0.9 3.5 0.00 0.00 0.00 49 1017.0
20260904102539 92 98 1.7 3.5 0.00 0.00 0.00 50 1017.1
20260904101537 90 146 1.7 3.5 0.00 0.00 0.00 53 1017.2
20260904100534 90 135 0.9 3.5 0.00 0.00 0.00 53 1017.3
20260904095531 89 117 0.9 3.5 0.00 0.00 0.00 54 1017.2
20260904094529 88 126 1.7 3.5 0.00 0.00 0.00 55 1017.3
20260904093526 88 9 0.9 3.5 0.00 0.00 0.00 55 1017.3
20260904092524 88 131 0.9 3.5 0.00 0.00 0.00 55 1017.3
20260904091521 87 198 0.0 1.7 0.00 0.00 0.00 56 1017.3
20260904090518 87 0 0.9 3.5 0.00 0.00 0.00 56 1017.2
20260904085516 87 90 0.0 1.7 0.00 0.00 0.00 56 1017.2
20260904084614 86 293 0.0 1.7 0.00 0.00 0.00 59 1017.2
20260904083611 84 112 0.9 1.7 0.00 0.00 0.00 60 1017.1
20260904082608 85 107 0.0 1.7 0.00 0.00 0.00 60 1017.0
20260904081606 84 0.0 1.7 0.00 0.00 0.00 60 1017.1
20260904080603 84 113 0.0 1.7 0.00 0.00 0.00 60 1017.0
20260904075601 83 0.0 0.0 0.00 0.00 0.00 62 1016.9
20260904074558 82 0.0 1.7 0.00 0.00 0.00 64 1016.9
20260904073555 81 113 0.0 1.7 0.00 0.00 0.00 66 1016.8
20260904072553 79 107 0.0 3.5 0.00 0.00 0.00 68 1016.8
20260904071550 78 109 0.9 1.7 0.00 0.00 0.00 69 1016.9
20260904070548 78 144 0.9 1.7 0.00 0.00 0.00 70 1016.8
20260904065545 78 0.0 1.7 0.00 0.00 0.00 69 1016.9
20260904064542 79 0.0 0.0 0.00 0.00 0.00 67 1016.8
20260904063540 78 50 0.9 1.7 0.00 0.00 0.00 69 1016.7
20260904062537 77 113 0.0 1.7 0.00 0.00 0.00 70 1016.7
20260904061534 76 0.0 0.0 0.00 0.00 0.00 73 1016.6
20260904060532 76 0.0 0.0 0.00 0.00 0.00 73 1016.5
20260904055529 74 286 0.9 1.7 0.00 0.00 0.00 75 1016.4
20260904054527 73 0.0 0.0 0.00 0.00 0.00 78 1016.5
20260904053524 73 0.0 0.0 0.00 0.00 0.00 79 1016.5
20260904052522 73 0.0 0.0 0.00 0.00 0.00 78 1016.4
20260904051519 73 0.0 0.0 0.00 0.00 0.00 78 1016.5
20260904050517 73 0.0 1.7 0.00 0.00 0.00 79 1016.4
20260904045614 73 293 0.9 1.7 0.00 0.00 0.00 79 1016.5
20260904044611 73 270 0.0 1.7 0.00 0.00 0.00 80 1016.7